Noatak, AK

11:11 AM AKDT on March 27, 2017 (GMT -0800)
Noatak

Weather History for PAWN - November, 2012

Change the Weather History Date:

Sunday, November 11, 2012

  Actual Average Record
Temperature  
Mean Temperature -2 °F -  
Max Temperature 3 °F 13 °F 39 °F (2014)
Min Temperature -7 °F 2 °F -16 °F (2001)
Degree Days  
Heating Degree Days 67    
Moisture  
Dew Point -7 °F    
Average Humidity 85    
Maximum Humidity 100    
Minimum Humidity 55    
Precipitation  
Precipitation 0.00 in - - ()
Sea Level Pressure  
Sea Level Pressure 30.04 in    
Wind  
Wind Speed 1 mph (NNE)    
Max Wind Speed 6 mph    
Max Gust Speed -    
Visibility 10 miles    
Events      
Averages and records for this station are not official NWS values.
T = Trace of Precipitation, MM = Missing Value Source: NWS Daily Summary

Daily Weather History Graph

Daily Weather History Graph

Search for Another Location

Airport or City:

Trip Planner

Search our weather history database for the weather conditions in past years. The results will help you decide how hot, cold, wet, or windy it might be!

Date:

Astronomy

Nov. 11, 2012 Rise Set
Actual Time 10:44 AM AKST 4:26 PM AKST
Civil Twilight 9:31 AM AKST 5:39 PM AKST
Nautical Twilight 8:22 AM AKST 6:48 PM AKST
Astronomical Twilight 7:17 AM AKST 7:52 PM AKST
Moon 7:13 AM AKST (11/11) 3:46 PM AKST (11/11)
Length of Visible Light 8h 07m
Length of Day
5h 42m
Waning Crescent, 6% of the Moon is Illuminated
Nov 11
Waning Crescent
Nov 13
New
Nov 20
First Quarter
Nov 28
Full
Dec 6
Last Quarter

Hourly Weather History & Observations

Time (AKST) Temp. Windchill Dew Point Humidity Pressure Visibility Wind Dir Wind Speed Gust Speed Precip Events Conditions
12:16 AM 1.4 °F - -0.4 °F 92% 29.93 in 10.0 mi Calm Calm - N/A   Clear
12:36 AM 3.2 °F -7.8 °F -0.4 °F 85% 29.93 in 10.0 mi NNE 5.8 mph - N/A   Clear
12:56 AM -2.2 °F - -9.4 °F 71% 29.94 in 10.0 mi Calm Calm - N/A   Clear
1:16 AM -0.4 °F - -0.4 °F 100% 29.94 in 10.0 mi Calm Calm - N/A   Clear
1:36 AM -2.2 °F - -7.6 °F 78% 29.94 in 10.0 mi Calm Calm - N/A   Clear
1:56 AM -0.4 °F - -4.0 °F 85% 29.94 in 10.0 mi Calm Calm - N/A   Clear
2:16 AM -5.8 °F - -9.4 °F 84% 29.94 in 10.0 mi Calm Calm - N/A   Clear
2:36 AM -4.0 °F - -7.6 °F 85% 29.94 in 10.0 mi Calm Calm - N/A   Clear
2:56 AM -2.2 °F - -5.8 °F 85% 29.95 in 10.0 mi Calm Calm - N/A   Clear
3:16 AM -2.2 °F - -9.4 °F 71% 29.95 in 10.0 mi Calm Calm - N/A   Clear
3:36 AM -5.8 °F -16.7 °F -9.4 °F 84% 29.95 in 10.0 mi North 4.6 mph - N/A   Clear
3:56 AM -5.8 °F - -11.2 °F 77% 29.95 in 10.0 mi Calm Calm - N/A   Clear
4:36 AM 1.4 °F -6.2 °F -0.4 °F 92% 29.95 in 10.0 mi North 3.5 mph - N/A   Clear
5:16 AM -2.2 °F - -5.8 °F 85% 29.95 in 10.0 mi Calm Calm - N/A   Clear
5:36 AM -2.2 °F - -2.2 °F 100% 29.96 in 10.0 mi Calm Calm - N/A   Clear
5:56 AM -5.8 °F - -14.8 °F 65% 29.96 in 10.0 mi Calm Calm - N/A   Clear
6:16 AM -0.4 °F - -0.4 °F 100% 29.96 in 10.0 mi Calm Calm - N/A   Clear
6:36 AM -5.8 °F -14.5 °F -18.4 °F 55% 29.97 in 10.0 mi East 3.5 mph - N/A   Clear
6:56 AM -7.6 °F - -9.4 °F 92% 29.98 in 10.0 mi Calm Calm - N/A   Clear
7:16 AM -7.6 °F - -11.2 °F 84% 29.98 in 10.0 mi Calm Calm - N/A   Clear
7:36 AM -7.6 °F - -11.2 °F 84% 29.98 in 10.0 mi Calm Calm - N/A   Clear
7:56 AM -7.6 °F - -11.2 °F 84% 29.99 in 10.0 mi Calm Calm - N/A   Clear
8:16 AM -7.6 °F - -9.4 °F 92% 29.99 in 10.0 mi Calm Calm - N/A   Clear
8:36 AM -7.6 °F - -11.2 °F 84% 29.99 in 8.0 mi Calm Calm - N/A   Clear
8:56 AM -7.6 °F - -9.4 °F 92% 30.00 in 10.0 mi Calm Calm - N/A   Clear
9:16 AM -7.6 °F - -9.4 °F 92% 30.00 in 10.0 mi Calm Calm - N/A   Clear
9:36 AM -7.6 °F - -9.4 °F 92% 30.01 in 10.0 mi Calm Calm - N/A   Clear
9:56 AM -5.8 °F - -9.4 °F 84% 30.01 in 10.0 mi Calm Calm - N/A   Clear
10:16 AM -5.8 °F - -11.2 °F 77% 30.01 in 10.0 mi Calm Calm - N/A   Clear
10:36 AM -5.8 °F - -9.4 °F 84% 30.01 in 10.0 mi Calm Calm - N/A   Clear
10:56 AM -7.6 °F - -13.0 °F 77% 30.02 in 10.0 mi Calm Calm - N/A   Clear
11:16 AM -5.8 °F - -7.6 °F 92% 30.03 in 10.0 mi Calm Calm - N/A   Clear
11:36 AM -7.6 °F - -11.2 °F 84% 30.04 in 10.0 mi Calm Calm - N/A   Clear
11:56 AM -4.0 °F -16.3 °F -7.6 °F 85% 30.04 in 10.0 mi NNE 5.8 mph - N/A   Clear
12:16 PM -5.8 °F -14.5 °F -9.4 °F 84% 30.04 in 10.0 mi NNE 3.5 mph - N/A   Clear
12:36 PM -4.0 °F - -7.6 °F 85% 30.05 in 10.0 mi Calm Calm - N/A   Clear
12:56 PM -2.2 °F - -7.6 °F 78% 30.05 in 10.0 mi Calm Calm - N/A   Clear
1:16 PM -4.0 °F - -7.6 °F 85% 30.05 in 10.0 mi Calm Calm - N/A   Clear
1:36 PM -2.2 °F - -5.8 °F 85% 30.06 in 10.0 mi Calm Calm - N/A   Clear
1:56 PM -2.2 °F - -5.8 °F 85% 30.06 in 10.0 mi Calm Calm - N/A   Clear
2:16 PM -2.2 °F - -5.8 °F 85% 30.06 in 10.0 mi Calm Calm - N/A   Clear
2:36 PM -2.2 °F - -5.8 °F 85% 30.06 in 10.0 mi Calm Calm - N/A   Clear
2:56 PM -0.4 °F - -4.0 °F 85% 30.07 in 10.0 mi Calm Calm - N/A   Clear
3:16 PM -0.4 °F - -5.8 °F 78% 30.07 in 10.0 mi Calm Calm - N/A   Clear
3:36 PM -0.4 °F -8.3 °F -4.0 °F 85% 30.08 in 10.0 mi NE 3.5 mph - N/A   Clear
3:56 PM -2.2 °F - -5.8 °F 85% 30.08 in 10.0 mi Calm Calm - N/A   Clear
4:16 PM -2.2 °F - -5.8 °F 85% 30.08 in 10.0 mi Calm Calm - N/A   Clear
4:36 PM -2.2 °F - -5.8 °F 85% 30.09 in 10.0 mi Calm Calm - N/A   Clear
4:56 PM -2.2 °F - -5.8 °F 85% 30.09 in 10.0 mi Calm Calm - N/A   Clear
5:16 PM -0.4 °F - -2.2 °F 92% 30.09 in 10.0 mi Calm Calm - N/A   Clear
5:36 PM -0.4 °F - -4.0 °F 85% 30.10 in 10.0 mi Calm Calm - N/A   Clear
5:56 PM -2.2 °F - -5.8 °F 85% 30.10 in 10.0 mi Calm Calm - N/A   Clear
6:16 PM -2.2 °F - -5.8 °F 85% 30.10 in 10.0 mi Calm Calm - N/A   Clear
6:36 PM -2.2 °F - -5.8 °F 85% 30.11 in 10.0 mi Calm Calm - N/A   Clear
6:56 PM -4.0 °F - -5.8 °F 92% 30.11 in 10.0 mi Calm Calm - N/A   Clear
7:16 PM -5.8 °F - -7.6 °F 92% 30.12 in 10.0 mi Calm Calm - N/A   Clear
7:36 PM -4.0 °F - -9.4 °F 78% 30.12 in 10.0 mi Calm Calm - N/A   Clear
7:56 PM -4.0 °F - -7.6 °F 85% 30.13 in 10.0 mi Calm Calm - N/A   Clear
8:16 PM -4.0 °F - -5.8 °F 92% 30.13 in 10.0 mi Calm Calm - N/A   Clear
8:36 PM -5.8 °F - -9.4 °F 84% 30.14 in 10.0 mi Calm Calm - N/A   Clear
8:56 PM -4.0 °F -14.6 °F -7.6 °F 85% 30.15 in 10.0 mi North 4.6 mph - N/A   Clear
9:56 PM -5.8 °F -16.7 °F -9.4 °F 84% 30.16 in 10.0 mi North 4.6 mph - N/A   Clear
10:16 PM -5.8 °F -16.7 °F -9.4 °F 84% 30.17 in 10.0 mi North 4.6 mph - N/A   Clear
10:36 PM -4.0 °F -12.4 °F -9.4 °F 78% 30.17 in 10.0 mi North 3.5 mph - N/A   Clear
10:56 PM -4.0 °F -12.4 °F -7.6 °F 85% 30.17 in 10.0 mi North 3.5 mph - N/A   Clear
11:16 PM -2.2 °F - -7.6 °F 78% 30.18 in 10.0 mi Calm Calm - N/A   Clear
11:36 PM -4.0 °F -14.6 °F -7.6 °F 85% 30.19 in 10.0 mi North 4.6 mph - N/A   Clear
11:56 PM -2.2 °F -12.5 °F -5.8 °F 85% 30.19 in 10.0 mi North 4.6 mph - N/A   Clear